COSMOS 590

Satellite information

Favourite Embed

Satellite Type and Status

PAYLOADIN ORBIT

Key statistics

Satellite COSMOS 590 at a glance.

Uptime

19067

Days in orbit

Revolutions

≈ 12.5

Per day

Orbit

LEO

Low Earth Orbit

Inclination

74.0

Latest

Satellite identification and parameters

Extended collection of information and parameters for COSMOS 590.

Object identification

Identified? True

Debris? False

Object name: COSMOS 590

International designator: 1973-069C

Object number (NORAD): 6847

Object ID (CCSDS): 6847

Country: COMMONWEALTH OF INDEPENDENT STATES (CIS)

Current information (Y/N): Y

RCS size: MEDIUM

Orbital parameters

Period: 115.098 minutes

Inclination: 73.9997 deg

SMA: 7838.004 km

Apoapsis: 1487.396 km

Periapsis: 1432.341 km

RAAN: 119.8745 deg

Eccentricy: 0.00351209

Argument of periapsis: 275.1752 deg

Mean anomaly: 111.2321 deg

Mean motion: 12.51107367 rev/day

Mean motion (dot): 0.0 rev/day2

B* drag term: 0.00010312189 1/REarth

Two-line elements (TLE)

Creation date: Dec. 14, 2025, 6:24 p.m.

Reference frame: TEME

Reference center: EARTH

Epoch: Dec. 14, 2025, 8:13 a.m. UTC

TLE line 0: 0 COSMOS 590

TLE line 1: 1 06847U 73069C 25348.34284815 .00000000 00000-0 10312-3 0 9997

TLE line 2: 2 06847 73.9997 119.8745 0035121 275.1752 111.2321 12.51107367383959

Live tracking on map

Real-time ground track for satellite COSMOS 590.

In-orbit conjunctions

A list of the most updated potential collisions computed for object COSMOS 590.

Target Orbit TCA Probability of collision Miss distance Type
COSMOS 374 DEB MEO 2025-05-06 11:37:00 0.0001551445 978.0 (m) DEBRIS

Associated space launch

Military communications satellites

COSMOS 590 was lifted into orbit during the mission ‘Kosmos-3M | Strela-1M 49-56’, on board a Kosmos-3M space rocket.

The launch took place on Oct. 2, 1973, 9:46 p.m. from 132/2.

For more information about the launch, click the button.

Launch to space Kosmos-3M | Strela-1M 49-56
Kosmos-3M | Strela-1M 49-56

Agency: N/A

Status: Launch Successful

Launch date: Oct. 2, 1973, 9:46 p.m. UTC

Rocket: Kosmos-3M

Launch pad: 132/2

Location: Plesetsk Cosmodrome, Russian Federation

...

Latest news about this satellite

There are no fresh news available about this satellite. Check back as we update our databases every day.


Newsletter sign-up

Weekly statistics, charts and insights to help you stay on top of the space industry.